TimeEST,TemperatureF,Dew PointF,Humidity,Sea Level PressureIn,VisibilityMPH,Wind Direction,Wind SpeedMPH,Gust SpeedMPH,PrecipitationIn,Events,Conditions,WindDirDegrees,DateUTC
12:15 AM,36.3,25.2,64,30.09,10.0,WSW,9.2,-,N/A,,Light Drizzle,250,2013-01-01 05:15:00
12:35 AM,36.3,25.5,65,30.09,10.0,WSW,11.5,-,N/A,Rain,Light Rain,250,2013-01-01 05:35:00
1:15 AM,36.0,25.7,66,30.06,10.0,West,12.7,-,N/A,,Overcast,260,2013-01-01 06:15:00
1:35 AM,36.0,25.3,65,30.05,10.0,WSW,12.7,-,N/A,,Overcast,250,2013-01-01 06:35:00
1:55 AM,36.5,25.3,64,30.06,10.0,WSW,11.5,-,N/A,,Overcast,250,2013-01-01 06:55:00
2:15 AM,37.2,24.1,59,30.05,10.0,WSW,10.4,-,N/A,,Overcast,250,2013-01-01 07:15:00
2:35 AM,37.4,24.4,60,30.05,10.0,WSW,9.2,-,N/A,,Overcast,240,2013-01-01 07:35:00
3:15 AM,37.8,23.9,57,30.05,10.0,WSW,10.4,-,N/A,,Overcast,250,2013-01-01 08:15:00
3:35 AM,38.1,23.7,56,30.06,10.0,WSW,9.2,18.4,N/A,,Overcast,250,2013-01-01 08:35:00
3:55 AM,38.3,23.5,55,30.04,10.0,WSW,8.1,-,N/A,,Overcast,240,2013-01-01 08:55:00
4:15 AM,38.7,23.2,54,30.06,10.0,WSW,9.2,-,N/A,,Overcast,240,2013-01-01 09:15:00
4:35 AM,37.8,24.8,60,30.06,10.0,WSW,9.2,-,N/A,,Light Drizzle,250,2013-01-01 09:35:00
4:55 AM,36.9,28.4,71,30.03,10.0,SSW,9.2,-,N/A,,Overcast,210,2013-01-01 09:55:00
5:15 AM,35.4,32.0,87,30.04,5.0,WSW,10.4,-,N/A,,Drizzle,250,2013-01-01 10:15:00
5:35 AM,35.2,34.9,99,30.03,4.0,WSW,9.2,-,N/A,,Drizzle,250,2013-01-01 10:35:00
6:15 AM,34.9,34.9,100,30.03,4.0,WSW,12.7,-,N/A,Rain,Light Rain,250,2013-01-01 11:15:00
6:35 AM,35.2,35.2,100,30.03,3.0,WSW,12.7,-,0.01,,Drizzle,250,2013-01-01 11:35:00
7:15 AM,36.5,36.5,100,30.04,2.0,WSW,10.4,-,0.01,Rain,Heavy Rain,240,2013-01-01 12:15:00
7:35 AM,36.9,36.9,100,30.04,2.5,WSW,13.8,-,0.02,Rain,Rain,240,2013-01-01 12:35:00
7:55 AM,37.4,37.4,100,30.03,2.5,West,15.0,19.6,0.05,Rain,Light Rain,260,2013-01-01 12:55:00
8:15 AM,37.9,37.9,100,30.04,3.0,WSW,12.7,19.6,N/A,Rain,Light Rain,250,2013-01-01 13:15:00
8:35 AM,37.8,37.8,100,30.02,1.0,WSW,11.5,-,0.01,Rain,Rain,240,2013-01-01 13:35:00
8:55 AM,38.8,38.8,100,30.03,1.5,West,16.1,-,0.01,,Overcast,270,2013-01-01 13:55:00
9:15 AM,41.2,41.2,100,30.02,10.0,WSW,13.8,23.0,N/A,,Overcast,250,2013-01-01 14:15:00
9:35 AM,41.4,41.4,100,30.02,10.0,WSW,9.2,18.4,N/A,Rain,Rain,240,2013-01-01 14:35:00
9:55 AM,40.6,40.6,100,30.00,4.0,SW,6.9,-,N/A,,Overcast,230,2013-01-01 14:55:00
10:15 AM,42.4,42.4,100,30.03,10.0,West,13.8,19.6,N/A,,Overcast,270,2013-01-01 15:15:00
10:35 AM,42.4,42.4,100,30.00,7.0,WSW,16.1,-,N/A,,Overcast,250,2013-01-01 15:35:00
10:55 AM,42.8,42.8,100,30.03,4.0,West,18.4,29.9,N/A,,Overcast,260,2013-01-01 15:55:00
11:15 AM,42.8,42.8,100,30.00,3.0,SW,11.5,17.3,N/A,,Overcast,220,2013-01-01 16:15:00
11:35 AM,41.7,41.7,100,30.00,0.8,WSW,11.5,-,N/A,,Drizzle,240,2013-01-01 16:35:00
11:55 AM,41.2,41.2,100,29.96,0.2,WSW,13.8,18.4,N/A,Fog,Fog,250,2013-01-01 16:55:00
12:15 PM,43.2,43.2,100,29.97,2.0,West,16.1,27.6,N/A,,Overcast,280,2013-01-01 17:15:00
12:35 PM,43.3,43.3,100,29.96,2.0,West,13.8,32.2,N/A,,Overcast,270,2013-01-01 17:35:00
12:55 PM,43.9,43.9,100,29.96,10.0,West,8.1,-,N/A,,Overcast,270,2013-01-01 17:55:00
1:15 PM,43.7,43.7,100,29.93,2.5,West,13.8,17.3,N/A,,Overcast,260,2013-01-01 18:15:00
1:35 PM,43.0,43.0,100,29.94,0.2,WSW,15.0,24.2,N/A,Fog,Fog,240,2013-01-01 18:35:00
1:55 PM,42.8,42.8,100,29.93,0.2,WSW,15.0,18.4,N/A,Fog,Fog,240,2013-01-01 18:55:00
2:15 PM,42.8,42.8,100,29.94,0.2,WSW,17.3,24.2,N/A,Fog,Fog,250,2013-01-01 19:15:00
2:35 PM,42.8,42.8,100,29.92,0.2,WSW,13.8,21.9,N/A,Fog,Fog,240,2013-01-01 19:35:00
2:55 PM,42.8,42.8,100,29.91,0.2,WSW,16.1,23.0,N/A,Fog,Fog,250,2013-01-01 19:55:00
3:15 PM,42.8,42.8,100,29.93,0.2,West,11.5,16.1,N/A,Fog,Fog,270,2013-01-01 20:15:00
3:35 PM,43.3,43.3,100,29.95,0.8,WSW,11.5,-,N/A,,Overcast,240,2013-01-01 20:35:00
3:55 PM,43.2,43.2,100,29.95,0.2,SW,9.2,-,N/A,Fog,Fog,230,2013-01-01 20:55:00
4:15 PM,43.2,43.2,100,29.96,0.2,WSW,9.2,-,N/A,Fog,Fog,240,2013-01-01 21:15:00
4:35 PM,43.2,43.2,100,29.96,0.2,WSW,6.9,-,N/A,Fog,Fog,240,2013-01-01 21:35:00
4:55 PM,42.8,42.8,100,29.97,0.2,WSW,12.7,-,N/A,Fog,Fog,250,2013-01-01 21:55:00
5:15 PM,42.8,42.8,100,29.96,0.2,SW,11.5,16.1,N/A,Fog,Fog,230,2013-01-01 22:15:00
5:35 PM,42.8,42.8,100,29.96,0.2,West,11.5,-,N/A,Fog,Fog,260,2013-01-01 22:35:00
5:55 PM,42.8,42.8,100,29.96,0.8,WSW,13.8,20.7,N/A,,Overcast,240,2013-01-01 22:55:00
6:15 PM,42.8,42.8,100,29.97,1.2,West,10.4,-,N/A,,Overcast,270,2013-01-01 23:15:00
6:35 PM,42.4,42.4,100,29.99,10.0,West,12.7,18.4,N/A,,Overcast,280,2013-01-01 23:35:00
6:55 PM,42.1,42.1,100,29.98,10.0,WSW,6.9,-,0.01,Rain,Light Rain,250,2013-01-01 23:55:00
7:15 PM,41.9,41.9,100,29.98,10.0,WSW,5.8,-,N/A,Rain,Rain,240,2013-01-02 00:15:00
7:35 PM,41.4,41.4,100,29.97,10.0,WSW,5.8,-,0.01,Rain,Rain,240,2013-01-02 00:35:00
7:55 PM,41.2,41.2,100,29.97,7.0,West,6.9,-,0.01,,Drizzle,270,2013-01-02 00:55:00
8:15 PM,41.2,41.2,100,29.97,7.0,West,6.9,-,0.01,Rain,Light Rain,260,2013-01-02 01:15:00
8:35 PM,41.4,41.4,100,29.98,4.0,WSW,8.1,-,0.02,Rain,Light Rain,250,2013-01-02 01:35:00
8:55 PM,41.4,41.4,100,29.97,2.5,WSW,8.1,-,0.04,Rain,Light Rain,250,2013-01-02 01:55:00
9:15 PM,41.9,41.9,100,29.96,2.5,WSW,8.1,-,0.02,Rain,Light Rain,250,2013-01-02 02:15:00
9:35 PM,41.9,41.9,100,29.97,2.0,WSW,8.1,-,0.03,,Drizzle,250,2013-01-02 02:35:00
9:55 PM,42.1,42.1,100,29.96,2.0,WSW,9.2,-,0.05,Rain,Light Rain,250,2013-01-02 02:55:00
10:15 PM,42.1,42.1,100,29.98,3.0,West,9.2,-,0.02,Rain,Light Rain,260,2013-01-02 03:15:00
10:35 PM,42.1,42.1,100,29.96,3.0,WSW,5.8,-,0.03,Rain,Light Rain,250,2013-01-02 03:35:00
10:55 PM,42.1,42.1,100,29.97,1.5,WSW,6.9,-,0.04,Rain,Rain,250,2013-01-02 03:55:00
11:15 PM,42.1,42.1,100,29.96,2.0,WSW,4.6,-,0.01,Rain,Rain,250,2013-01-02 04:15:00
11:35 PM,42.1,42.1,100,29.96,1.8,WNW,5.8,-,0.02,,Drizzle,300,2013-01-02 04:35:00
11:55 PM,41.2,41.2,100,29.96,7.0,WNW,3.5,-,0.02,,Drizzle,300,2013-01-02 04:55:00